Location: Unspecified
(50.7693°N, 0.0000°E)
Time: 13:22:31
(UTC+00:00)

Vanguard 1 - Pass Details

Date: 20 June 2019
Orbit: 653 x 3830 km, 34.3° (Epoch: 20 July)

Event Time Altitude Azimuth Distance (km) Brightness Sun altitude
Exits shadow 02:48:54 - 213° (SSW) 6,259 13.5 -7.1°
Reaches altitude 10° 02:50:33 10° 210° (SSW) 5,889 13.4 -7.0°
Maximum altitude 03:02:30 25° 165° (SSE) 3,651 12.7 -5.8°
Drops below altitude 10° 03:10:27 10° 115° (ESE) 3,816 13.3 -4.9°
Sets 03:13:38 0° 102° (ESE) 4,410 13.9 -4.6°
